Okmulgee, OK

7:07 AM CDT on August 20, 2017 (GMT -0500)
Okmulgee Regional

Weather History for KOKM - September, 2014

Change the Weather History Date:

Monday, September 1, 2014

  Actual Average (KMKO) Record (KMKO)
Temperature  
Mean Temperature 86 °F -  
Max Temperature 95 °F 89 °F 109 °F (2000)
Min Temperature 76 °F 65 °F 62 °F (2007)
Cooling Degree Days 20    
Growing Degree Days 36 (Base 50)    
Moisture  
Dew Point 71 °F    
Average Humidity 67    
Maximum Humidity 84    
Minimum Humidity 46    
Precipitation  
Precipitation 0.00 in - - ()
Sea Level Pressure  
Sea Level Pressure 29.85 in    
Wind  
Wind Speed 15 mph (SSE)    
Max Wind Speed 25 mph    
Max Gust Speed 40 mph    
Visibility 10 miles    
Events      
Averages and records for this station are not official NWS values.
T = Trace of Precipitation, MM = Missing Value Source: NWS Daily Summary

Daily Weather History Graph

Daily Weather History Graph

Search for Another Location

Airport or City:

Trip Planner

Search our weather history database for the weather conditions in past years. The results will help you decide how hot, cold, wet, or windy it might be!

Date:

Astronomy

Sep. 01, 2014 Rise Set
Actual Time 6:55 AM CDT 7:51 PM CDT
Civil Twilight 6:29 AM CDT 8:17 PM CDT
Nautical Twilight 5:58 AM CDT 8:47 PM CDT
Astronomical Twilight 5:26 AM CDT 9:19 PM CDT
Moon 1:29 PM CDT (9/1) No Moon Set
Length of Visible Light 13h 47m
Length of Day
12h 55m
Waxing Crescent, 42% of the Moon is Illuminated
Sep 1
Waxing Crescent
Sep 2
First Quarter
Sep 8
Full
Sep 15
Last Quarter
Sep 24
New

Hourly Weather History & Observations

Time (CDT) Temp. Heat Index Dew Point Humidity Pressure Visibility Wind Dir Wind Speed Gust Speed Precip Events Conditions
12:15 AM 81.1 °F 84.2 °F 68.9 °F 66% 29.81 in 10.0 mi South 19.6 mph 29.9 mph N/A   Clear
12:35 AM 80.8 °F 83.8 °F 69.1 °F 67% 29.82 in 10.0 mi South 16.1 mph 25.3 mph N/A   Clear
1:15 AM 80.1 °F 83.3 °F 70.2 °F 72% 29.81 in 10.0 mi SSE 15.0 mph 25.3 mph N/A   Clear
1:35 AM 79.3 °F - 70.3 °F 74% 29.82 in 10.0 mi SSE 12.7 mph 23.0 mph N/A   Clear
1:55 AM 79.2 °F - 70.7 °F 75% 29.81 in 10.0 mi South 13.8 mph 25.3 mph N/A   Clear
2:15 AM 79.0 °F - 71.1 °F 77% 29.81 in 10.0 mi South 16.1 mph 23.0 mph N/A   Clear
2:35 AM 79.0 °F - 71.6 °F 78% 29.81 in 10.0 mi South 13.8 mph 23.0 mph N/A   Clear
2:55 AM 78.8 °F - 71.8 °F 79% 29.81 in 10.0 mi South 17.3 mph 24.2 mph N/A   Clear
3:15 AM 78.8 °F - 71.8 °F 79% 29.81 in 10.0 mi South 17.3 mph 21.9 mph N/A   Clear
3:35 AM 78.6 °F - 71.6 °F 79% 29.81 in 10.0 mi South 18.4 mph 23.0 mph N/A   Clear
3:55 AM 78.1 °F - 71.6 °F 80% 29.81 in 10.0 mi SSW 13.8 mph 21.9 mph N/A   Clear
4:15 AM 78.1 °F - 71.4 °F 80% 29.82 in 10.0 mi South 15.0 mph 28.8 mph N/A   Clear
4:35 AM 77.9 °F - 71.2 °F 80% 29.82 in 10.0 mi South 18.4 mph 26.5 mph N/A   Clear
4:55 AM 77.9 °F - 71.1 °F 79% 29.81 in 10.0 mi South 18.4 mph 29.9 mph N/A   Clear
5:15 AM 77.7 °F - 70.9 °F 79% 29.86 in 10.0 mi SSW 5.8 mph 27.6 mph N/A   Clear
5:35 AM 77.9 °F - 71.2 °F 80% 29.89 in 10.0 mi ESE 8.1 mph - N/A   Mostly Cloudy
5:55 AM 77.5 °F - 71.1 °F 80% 29.91 in 10.0 mi North 8.1 mph 17.3 mph N/A   Overcast
6:15 AM 77.5 °F - 71.1 °F 80% 29.90 in 10.0 mi SE 6.9 mph - N/A   Overcast
6:35 AM 77.4 °F - 71.2 °F 81% 29.92 in 10.0 mi East 6.9 mph - N/A   Overcast
6:55 AM 77.2 °F - 71.4 °F 82% 29.93 in 10.0 mi East 12.7 mph - N/A   Overcast
7:15 AM 77.0 °F - 71.6 °F 83% 29.94 in 10.0 mi East 12.7 mph - N/A   Overcast
7:35 AM 76.8 °F - 71.6 °F 84% 29.94 in 10.0 mi ESE 8.1 mph - N/A   Overcast
7:55 AM 77.0 °F - 71.6 °F 83% 29.94 in 10.0 mi ESE 11.5 mph 17.3 mph N/A   Overcast
8:15 AM 77.2 °F - 71.4 °F 82% 29.94 in 10.0 mi ESE 12.7 mph 17.3 mph N/A   Overcast
8:35 AM 77.4 °F - 71.1 °F 81% 29.94 in 10.0 mi SE 11.5 mph 18.4 mph N/A   Overcast
8:55 AM 77.7 °F - 71.1 °F 80% 29.94 in 10.0 mi SE 8.1 mph 17.3 mph N/A   Overcast
9:15 AM 78.6 °F - 71.1 °F 78% 29.94 in 10.0 mi SE 9.2 mph 16.1 mph N/A   Overcast
9:35 AM 78.3 °F - 70.7 °F 77% 29.93 in 10.0 mi SSE 9.2 mph 17.3 mph N/A   Overcast
9:55 AM 79.9 °F - 70.9 °F 74% 29.93 in 10.0 mi SSE 11.5 mph 18.4 mph N/A   Overcast
10:15 AM 79.7 °F - 70.9 °F 74% 29.93 in 10.0 mi South 12.7 mph 23.0 mph N/A   Overcast
10:35 AM 80.8 °F 84.6 °F 71.1 °F 72% 29.92 in 10.0 mi SSE 11.5 mph 23.0 mph N/A   Overcast
11:15 AM 84.4 °F 90.0 °F 72.0 °F 66% 29.91 in 10.0 mi SSE 15.0 mph 23.0 mph N/A   Mostly Cloudy
11:35 AM 85.1 °F 91.1 °F 72.0 °F 65% 29.91 in 10.0 mi South 18.4 mph 26.5 mph N/A   Mostly Cloudy
12:35 PM 89.1 °F 96.5 °F 72.3 °F 58% 29.88 in 10.0 mi South 19.6 mph 26.5 mph N/A   Scattered Clouds
12:55 PM 90.1 °F 97.8 °F 72.3 °F 56% 29.86 in 10.0 mi South 17.3 mph 31.1 mph N/A   Scattered Clouds
1:15 PM 91.4 °F 98.9 °F 72.3 °F 53% 29.86 in 10.0 mi South 16.1 mph 32.2 mph N/A   Scattered Clouds
1:35 PM 92.3 °F 100.3 °F 72.5 °F 52% 29.85 in 10.0 mi South 19.6 mph 25.3 mph N/A   Scattered Clouds
1:55 PM 93.7 °F 102.9 °F 72.9 °F 51% 29.85 in 10.0 mi South 12.7 mph 25.3 mph N/A   Clear
2:15 PM 94.1 °F 103.1 °F 72.9 °F 50% 29.84 in 10.0 mi South 17.3 mph 28.8 mph N/A   Clear
2:35 PM 93.9 °F 102.1 °F 72.0 °F 49% 29.83 in 10.0 mi South 23.0 mph 32.2 mph N/A   Clear
3:15 PM 94.5 °F 103.3 °F 72.9 °F 49% 29.81 in 10.0 mi South 21.9 mph 35.7 mph N/A   Clear
3:35 PM 95.4 °F 104.7 °F 72.7 °F 48% 29.81 in 10.0 mi South 23.0 mph 32.2 mph N/A   Clear
4:15 PM 95.2 °F 102.9 °F 71.6 °F 46% 29.80 in 10.0 mi South 25.3 mph 40.3 mph N/A   Scattered Clouds
4:35 PM 95.4 °F 104.0 °F 72.1 °F 47% 29.80 in 10.0 mi South 23.0 mph 33.4 mph N/A   Scattered Clouds
4:55 PM 95.4 °F 104.0 °F 72.1 °F 47% 29.80 in 10.0 mi South 18.4 mph 32.2 mph N/A   Scattered Clouds
5:15 PM 92.8 °F 100.3 °F 71.8 °F 50% 29.80 in 10.0 mi South 18.4 mph 29.9 mph N/A   Scattered Clouds
5:35 PM 93.2 °F 101.1 °F 72.1 °F 50% 29.80 in 10.0 mi SSE 19.6 mph 35.7 mph N/A   Scattered Clouds
5:55 PM 92.3 °F 100.3 °F 72.1 °F 52% 29.80 in 10.0 mi SSE 19.6 mph 26.5 mph N/A   Scattered Clouds
6:15 PM 91.6 °F 99.3 °F 72.5 °F 53% 29.80 in 10.0 mi South 16.1 mph 24.2 mph N/A   Scattered Clouds
6:35 PM 90.7 °F 97.9 °F 71.8 °F 54% 29.80 in 10.0 mi South 17.3 mph 27.6 mph N/A   Clear
6:55 PM 89.6 °F 96.2 °F 71.6 °F 55% 29.80 in 10.0 mi South 15.0 mph 27.6 mph N/A   Clear
7:15 PM 88.9 °F 95.1 °F 71.6 °F 56% 29.80 in 10.0 mi South 15.0 mph 26.5 mph N/A   Clear
7:35 PM 87.8 °F 93.8 °F 71.2 °F 58% 29.79 in 10.0 mi South 13.8 mph 23.0 mph N/A   Clear
7:55 PM 86.4 °F 92.2 °F 71.2 °F 61% 29.79 in 10.0 mi SSE 13.8 mph 23.0 mph N/A   Clear
8:15 PM 85.6 °F 91.1 °F 71.2 °F 62% 29.81 in 10.0 mi South 13.8 mph 21.9 mph N/A   Clear
8:35 PM 85.1 °F 90.4 °F 71.1 °F 63% 29.82 in 10.0 mi South 12.7 mph 21.9 mph N/A   Clear
9:15 PM 84.2 °F 88.7 °F 70.5 °F 63% 29.84 in 10.0 mi SSE 10.4 mph 19.6 mph N/A   Clear
9:35 PM 83.5 °F 87.7 °F 70.3 °F 64% 29.84 in 10.0 mi SE 10.4 mph - N/A   Clear
9:55 PM 83.3 °F 87.4 °F 70.2 °F 64% 29.85 in 10.0 mi SE 10.4 mph 16.1 mph N/A   Clear
10:15 PM 82.8 °F 86.7 °F 70.0 °F 65% 29.86 in 10.0 mi SE 6.9 mph - N/A   Clear
10:35 PM 82.0 °F 85.9 °F 70.0 °F 67% 29.86 in 10.0 mi SE 8.1 mph - N/A   Clear
10:55 PM 81.9 °F 85.6 °F 69.8 °F 67% 29.86 in 10.0 mi SE 6.9 mph - N/A   Clear
11:15 PM 81.5 °F 84.9 °F 69.8 °F 67% 29.87 in 10.0 mi SE 6.9 mph - N/A   Clear
11:35 PM 80.6 °F 83.8 °F 69.6 °F 69% 29.89 in 10.0 mi SSE 3.5 mph - N/A   Clear
11:55 PM 79.9 °F - 69.8 °F 71% 29.88 in 10.0 mi SE 5.8 mph - N/A   Clear